Regional Weather Roundup
Issued by NWS Charleston, WV

Home | Current Version | Previous Version | Graphics & Text | Print | Product List | Glossary On
Versions: 1 2 3 4 5 6 7 8 9 10 11 12 13 14 15 16 17 18 19 20 21 22 23 24 25 26 27 28 29 30 31 32 33 34 35 36 37 38 39 40 41 42 43 44 45 46 47 48 49 50
000
ASUS41 KRLX 211810
RWRRLX
West Virginia Regional Weather Roundup
National Weather Service Charleston WV
100 PM EST FRI NOV 21 2014

Note: "fair" indicates few or no clouds below 12,000 feet with no
significant weather and/or obstructions to visibility.

WVZ003-211900-
Northern Panhandle of West Virginia

CITY           SKY/WX    TMP DP  RH WIND       PRES   REMARKS
WHEELING       MOSUNNY   27   7  42 NW13      30.45S
$$

WVZ009-211900-
Northwest West Virginia

CITY           SKY/WX    TMP DP  RH WIND       PRES   REMARKS
PARKERSBURG    SUNNY     32   9  38 NW5       30.52S
$$

WVZ006-211900-
Western West Virginia

CITY           SKY/WX    TMP DP  RH WIND       PRES   REMARKS
HUNTINGTON     SUNNY     33   8  35 VRB6      30.50F
$$

WVZ015-211900-
West Central West Virginia

CITY           SKY/WX    TMP DP  RH WIND       PRES   REMARKS
CHARLESTON     SUNNY     33   9  36 S6        30.48F
$$

WVZ022-031-211900-
North Central West Virginia

CITY           SKY/WX    TMP DP  RH WIND       PRES   REMARKS
CLARKSBURG     SUNNY     30   8  39 NW10      30.45S
MORGANTOWN     PTSUNNY   29   5  36 VRB6      30.45S
$$

WVZ025-035-042-045-211900-
Southern West Virginia

CITY           SKY/WX    TMP DP  RH WIND       PRES   REMARKS
BECKLEY        SUNNY     31   6  35 VRB7      30.38S
LOGAN            N/A     34  12  40 NW5       30.44F HAZE
BLUEFIELD      SUNNY     33   8  35 W9        30.37F
LEWISBURG      SUNNY     33   4  30 W6        30.37F
$$

WVZ047-211900-
Northern Mountains of West Virginia

CITY           SKY/WX    TMP DP  RH WIND       PRES   REMARKS
ELKINS         SUNNY     28   8  43 NW10      30.40S
$$

WVZ052-211900-
Eastern Panhandle of West Virginia

CITY           SKY/WX    TMP DP  RH WIND       PRES   REMARKS
MARTINSBURG    SUNNY     34   3  27 NW17G25   30.43F
PETERSBURG     SUNNY     34   0  24 CALM      30.43F
$$



USA.gov is the U.S. government's official web portal to all federal, state and local government web resources and services.